QPF
0.00 0.00 0.00 0.00 0.00 0.01 0.00 0.00 0.00 0.00 0.00 0.00 0.00 0.00 0.00 0.00 0.00 0.00 0.00 0.00 0.00 0.00 0.00 0.00 0.00 0.00 0.00 0.00 0.00 0.00 0.00 0.00 0.00 0.00 0.01 0.01 0.02 0.03 0.05 0.08 0.06 0.06 0.08
0.00 0.00 0.00 0.00 0.00 0.01 0.00 0.00 0.00 0.00 0.00 0.00 0.00 0.00 0.00 0.00 0.00 0.00 0.00 0.00 0.00 0.00 0.00 0.00 0.00 0.00 0.00 0.00 0.00 0.00 0.00 0.00 0.00 0.01 0.02 0.03 0.05 0.06 0.05 0.04 0.02 0.05 0.06
0.00 0.00 0.00 0.00 0.00 0.01 0.00 0.00 0.00 0.00 0.00 0.00 0.00 0.00 0.00 0.00 0.00 0.00 0.00 0.00 0.00 0.00 0.00 0.00 0.00 0.00 0.00 0.00 0.00 0.00 0.00 0.00 0.01 0.01 0.02 0.02 0.07 0.10 0.05 0.02 0.03 0.04 0.03
0.00 0.00 0.00 0.00 0.00 0.00 0.00 0.00 0.00 0.00 0.00 0.00 0.00 0.00 0.00 0.00 0.00 0.00 0.00 0.00 0.00 0.00 0.00 0.00 0.00 0.00 0.00 0.00 0.00 0.00 0.00 0.01 0.01 0.01 0.00 0.01 0.03 0.06 0.04 0.02 0.03 0.03 0.02
0.00 0.00 0.00 0.00 0.00 0.00 0.00 0.00 0.00 0.00 0.00 0.00 0.00 0.00 0.00 0.00 0.00 0.00 0.00 0.00 0.00 0.00 0.01 0.00 0.00 0.00 0.00 0.00 0.00 0.00 0.00 0.01 0.01 0.00 0.00 0.00 0.01 0.03 0.02 0.01 0.02 0.02 0.01
0.00 0.00 0.00 0.00 0.00 0.00 0.00 0.00 0.00 0.00 0.00 0.00 0.00 0.00 0.00 0.00 0.00 0.00 0.00 0.00 0.00 0.01 0.01 0.01 0.01 0.00 0.00 0.00 0.00 0.00 0.00 0.01 0.01 0.00 0.00 0.00 0.00 0.02 0.01 0.00 0.00 0.01 0.01
0.00 0.00 0.00 0.00 0.00 0.00 0.00 0.00 0.00 0.00 0.00 0.00 0.00 0.00 0.00 0.00 0.00 0.01 0.01 0.01 0.01 0.01 0.02 0.02 0.02 0.01 0.01 0.00 0.00 0.00 0.01 0.02 0.01 0.01 0.00 0.00 0.00 0.01 0.01 0.00 0.00 0.00 0.01
0.00 0.00 0.00 0.00 0.00 0.00 0.00 0.00 0.00 0.00 0.00 0.00 0.00 0.00 0.01 0.01 0.01 0.01 0.01 0.01 0.01 0.02 0.02 0.02 0.02 0.02 0.01 0.01 0.00 0.00 0.01 0.02 0.01 0.01 0.01 0.00 0.01 0.01 0.01 0.00 0.00 0.00 0.00
0.00 0.00 0.00 0.00 0.00 0.00 0.00 0.00 0.00 0.00 0.00 0.00 0.00 0.01 0.01 0.01 0.01 0.01 0.01 0.01 0.01 0.01 0.02 0.02 0.03 0.03 0.03 0.02 0.01 0.01 0.01 0.01 0.02 0.02 0.01 0.01 0.01 0.02 0.02 0.01 0.01 0.00 0.00
0.00 0.00 0.00 0.00 0.00 0.00 0.00 0.00 0.01 0.01 0.01 0.01 0.01 0.01 0.01 0.01 0.01 0.01 0.01 0.02 0.02 0.03 0.03 0.05 0.05 0.04 0.04 0.04 0.02 0.01 0.01 0.01 0.01 0.01 0.01 0.01 0.01 0.02 0.04 0.03 0.02 0.01 0.00
0.01 0.01 0.01 0.01 0.00 0.00 0.01 0.01 0.01 0.01 0.01 0.02 0.01 0.01 0.01 0.01 0.02 0.02 0.03 0.04 0.05 0.08 0.09 0.11 0.12 0.11 0.10 0.07 0.06 0.05 0.03 0.02 0.01 0.01 0.02 0.01 0.01 0.03 0.06 0.06 0.05 0.03 0.01
0.09 0.06 0.05 0.04 0.04 0.04 0.04 0.03 0.04 0.04 0.05 0.05 0.04 0.03 0.03 0.03 0.03 0.04 0.05 0.07 0.10 0.14 0.20 0.24 0.24 0.21 0.17 0.14 0.13 0.12 0.07 0.05 0.02 0.01 0.02 0.01 0.02 0.05 0.10 0.12 0.08 0.06 0.04
0.17 0.11 0.08 0.10 0.10 0.10 0.10 0.11 0.13 0.14 0.12 0.11 0.09 0.07 0.07 0.07 0.07 0.06 0.05 0.06 0.08 0.13 0.14 0.17 0.22 0.20 0.19 0.19 0.17 0.14 0.09 0.07 0.04 0.02 0.01 0.02 0.02 0.04 0.10 0.13 0.11 0.09 0.07
0.15 0.13 0.15 0.20 0.20 0.19 0.21 0.20 0.20 0.18 0.16 0.16 0.13 0.09 0.09 0.09 0.09 0.09 0.07 0.06 0.06 0.08 0.09 0.12 0.14 0.15 0.16 0.20 0.21 0.18 0.13 0.07 0.04 0.02 0.01 0.02 0.03 0.04 0.08 0.12 0.12 0.12 0.10
0.15 0.15 0.20 0.22 0.24 0.27 0.29 0.26 0.21 0.18 0.18 0.17 0.14 0.11 0.10 0.11 0.12 0.12 0.10 0.10 0.07 0.06 0.05 0.08 0.12 0.13 0.14 0.16 0.18 0.19 0.15 0.08 0.05 0.03 0.01 0.02 0.03 0.05 0.07 0.10 0.12 0.14 0.13
0.18 0.19 0.20 0.22 0.24 0.24 0.24 0.23 0.23 0.20 0.15 0.13 0.11 0.11 0.10 0.10 0.09 0.09 0.08 0.07 0.06 0.05 0.05 0.05 0.07 0.10 0.13 0.14 0.15 0.15 0.13 0.10 0.07 0.05 0.03 0.03 0.04 0.07 0.09 0.11 0.13 0.16 0.16
0.15 0.19 0.18 0.16 0.16 0.15 0.14 0.13 0.11 0.10 0.08 0.08 0.07 0.06 0.06 0.05 0.04 0.05 0.04 0.05 0.05 0.06 0.05 0.04 0.04 0.06 0.08 0.09 0.09 0.11 0.14 0.13 0.09 0.08 0.07 0.05 0.05 0.08 0.11 0.12 0.15 0.18 0.21
0.10 0.13 0.11 0.08 0.08 0.07 0.06 0.05 0.04 0.03 0.02 0.02 0.03 0.03 0.03 0.03 0.03 0.03 0.02 0.02 0.03 0.04 0.04 0.03 0.02 0.02 0.03 0.03 0.03 0.06 0.11 0.15 0.15 0.13 0.11 0.09 0.08 0.07 0.09 0.13 0.17 0.22 0.25
0.05 0.05 0.04 0.03 0.02 0.02 0.01 0.01 0.01 0.00 0.00 0.00 0.00 0.01 0.00 0.01 0.01 0.01 0.01 0.01 0.01 0.02 0.02 0.02 0.02 0.02 0.02 0.02 0.03 0.04 0.06 0.10 0.12 0.13 0.12 0.11 0.10 0.09 0.09 0.10 0.17 0.21 0.25
0.01 0.01 0.01 0.00 0.00 0.00 0.00 0.00 0.00 0.00 0.00 0.00 0.00 0.00 0.00 0.00 0.00 0.00 0.00 0.00 0.00 0.00 0.00 0.01 0.01 0.01 0.02 0.01 0.02 0.03 0.04 0.05 0.08 0.09 0.08 0.09 0.09 0.09 0.09 0.09 0.12 0.15 0.22
0.00 0.00 0.00 0.00 0.00 0.00 0.00 0.00 0.00 0.00 0.00 0.00 0.00 0.00 0.00 0.00 0.00 0.00 0.00 0.00 0.00 0.00 0.00 0.00 0.00 0.00 0.01 0.00 0.01 0.01 0.01 0.03 0.05 0.07 0.08 0.09 0.09 0.09 0.10 0.10 0.12 0.13 0.14
0.00 0.00 0.00 0.00 0.00 0.00 0.00 0.00 0.00 0.00 0.00 0.00 0.00 0.00 0.00 0.00 0.00 0.00 0.00 0.00 0.00 0.00 0.00 0.00 0.00 0.00 0.00 0.01 0.02 0.02 0.02 0.03 0.03 0.05 0.07 0.08 0.08 0.08 0.09 0.09 0.09 0.11 0.12
0.00 0.00 0.00 0.00 0.00 0.00 0.00 0.00 0.00 0.00 0.00 0.00 0.00 0.00 0.00 0.00 0.00 0.00 0.00 0.00 0.00 0.00 0.00 0.00 0.00 0.00 0.00 0.01 0.03 0.05 0.06 0.06 0.05 0.05 0.05 0.06 0.07 0.08 0.06 0.06 0.06 0.07 0.10
0.00 0.00 0.00 0.00 0.00 0.00 0.00 0.00 0.00 0.00 0.00 0.00 0.00 0.00 0.00 0.00 0.00 0.00 0.00 0.00 0.00 0.00 0.00 0.00 0.00 0.00 0.00 0.00 0.01 0.03 0.05 0.08 0.09 0.07 0.06 0.06 0.08 0.08 0.08 0.07 0.06 0.05 0.06
0.00 0.00 0.00 0.00 0.00 0.00 0.00 0.00 0.00 0.00 0.00 0.00 0.00 0.00 0.00 0.00 0.00 0.00 0.00 0.00 0.00 0.00 0.00 0.00 0.00 0.00 0.00 0.00 0.00 0.01 0.03 0.06 0.09 0.10 0.09 0.09 0.10 0.08 0.08 0.08 0.07 0.05 0.05
0.00 0.00 0.00 0.00 0.00 0.00 0.00 0.00 0.00 0.00 0.00 0.00 0.00 0.00 0.00 0.00 0.00 0.00 0.00 0.00 0.00 0.00 0.00 0.00 0.00 0.00 0.00 0.00 0.00 0.00 0.01 0.03 0.06 0.08 0.07 0.07 0.10 0.12 0.10 0.09 0.08 0.06 0.06
MSLP
1011.89 1011.68 1011.58 1011.63 1011.82 1012.09 1012.38 1012.65 1012.84 1012.97 1013.04 1013.09 1013.17 1013.32 1013.54 1013.85 1014.20 1014.55 1014.87 1015.11 1015.27 1015.36 1015.40 1015.41 1015.43 1015.46 1015.53 1015.61 1015.71 1015.81 1015.90 1015.99 1016.09 1016.20 1016.33 1016.49 1016.67 1016.85 1017.03 1017.19 1017.33 1017.45 1017.56
1011.75 1011.59 1011.55 1011.65 1011.87 1012.18 1012.51 1012.81 1013.04 1013.21 1013.33 1013.43 1013.56 1013.74 1013.99 1014.29 1014.62 1014.93 1015.19 1015.38 1015.50 1015.56 1015.59 1015.61 1015.65 1015.71 1015.79 1015.88 1015.97 1016.04 1016.10 1016.16 1016.23 1016.33 1016.47 1016.64 1016.85 1017.06 1017.27 1017.45 1017.60 1017.74 1017.86
1011.56 1011.47 1011.48 1011.64 1011.91 1012.26 1012.64 1012.98 1013.26 1013.48 1013.65 1013.80 1013.97 1014.18 1014.44 1014.72 1015.00 1015.24 1015.44 1015.56 1015.63 1015.67 1015.70 1015.74 1015.81 1015.90 1016.02 1016.12 1016.22 1016.28 1016.33 1016.37 1016.43 1016.52 1016.66 1016.84 1017.06 1017.29 1017.51 1017.71 1017.88 1018.02 1018.16
1011.39 1011.35 1011.43 1011.65 1011.98 1012.38 1012.80 1013.18 1013.50 1013.75 1013.95 1014.14 1014.33 1014.55 1014.79 1015.04 1015.27 1015.45 1015.57 1015.63 1015.66 1015.68 1015.72 1015.79 1015.90 1016.05 1016.20 1016.34 1016.45 1016.53 1016.57 1016.61 1016.67 1016.76 1016.90 1017.08 1017.30 1017.53 1017.75 1017.95 1018.12 1018.28 1018.43
1011.29 1011.32 1011.47 1011.75 1012.13 1012.57 1013.00 1013.40 1013.72 1013.98 1014.19 1014.39 1014.58 1014.79 1015.01 1015.22 1015.39 1015.52 1015.58 1015.61 1015.61 1015.63 1015.68 1015.79 1015.96 1016.15 1016.35 1016.53 1016.67 1016.76 1016.82 1016.87 1016.93 1017.02 1017.16 1017.34 1017.55 1017.76 1017.97 1018.16 1018.33 1018.50 1018.66
1011.32 1011.41 1011.62 1011.95 1012.37 1012.82 1013.26 1013.63 1013.92 1014.15 1014.34 1014.50 1014.68 1014.87 1015.07 1015.25 1015.39 1015.48 1015.51 1015.51 1015.51 1015.54 1015.63 1015.78 1015.98 1016.22 1016.47 1016.68 1016.84 1016.96 1017.04 1017.10 1017.18 1017.28 1017.42 1017.59 1017.78 1017.97 1018.16 1018.33 1018.49 1018.66 1018.83
1011.50 1011.64 1011.90 1012.28 1012.71 1013.15 1013.55 1013.86 1014.09 1014.25 1014.38 1014.50 1014.65 1014.81 1014.99 1015.16 1015.28 1015.36 1015.39 1015.39 1015.40 1015.45 1015.57 1015.75 1015.99 1016.26 1016.53 1016.76 1016.95 1017.08 1017.18 1017.27 1017.36 1017.47 1017.62 1017.79 1017.96 1018.13 1018.29 1018.43 1018.58 1018.74 1018.94
1011.82 1012.00 1012.31 1012.71 1013.14 1013.54 1013.86 1014.08 1014.22 1014.29 1014.34 1014.41 1014.52 1014.67 1014.84 1015.01 1015.14 1015.23 1015.27 1015.29 1015.32 1015.39 1015.52 1015.72 1015.97 1016.25 1016.52 1016.76 1016.95 1017.10 1017.22 1017.32 1017.44 1017.57 1017.73 1017.89 1018.06 1018.21 1018.34 1018.47 1018.60 1018.76 1018.97
1012.25 1012.49 1012.82 1013.23 1013.62 1013.95 1014.18 1014.30 1014.33 1014.30 1014.28 1014.30 1014.38 1014.52 1014.69 1014.87 1015.02 1015.12 1015.18 1015.22 1015.26 1015.34 1015.48 1015.67 1015.91 1016.17 1016.43 1016.65 1016.84 1016.99 1017.11 1017.24 1017.38 1017.53 1017.71 1017.89 1018.05 1018.19 1018.32 1018.43 1018.55 1018.72 1018.93
1012.77 1013.03 1013.39 1013.78 1014.12 1014.37 1014.50 1014.51 1014.44 1014.33 1014.24 1014.22 1014.28 1014.42 1014.60 1014.79 1014.95 1015.07 1015.15 1015.19 1015.24 1015.31 1015.43 1015.60 1015.81 1016.04 1016.26 1016.45 1016.61 1016.75 1016.88 1017.02 1017.18 1017.36 1017.56 1017.75 1017.93 1018.08 1018.20 1018.31 1018.44 1018.61 1018.84
1013.31 1013.61 1013.96 1014.32 1014.60 1014.77 1014.80 1014.72 1014.56 1014.39 1014.26 1014.21 1014.27 1014.41 1014.59 1014.79 1014.96 1015.08 1015.15 1015.19 1015.22 1015.28 1015.37 1015.51 1015.67 1015.85 1016.02 1016.17 1016.30 1016.42 1016.54 1016.68 1016.86 1017.06 1017.28 1017.50 1017.70 1017.86 1018.00 1018.12 1018.26 1018.44 1018.68
1013.85 1014.16 1014.50 1014.80 1015.02 1015.10 1015.06 1014.90 1014.69 1014.49 1014.34 1014.30 1014.35 1014.49 1014.68 1014.87 1015.02 1015.13 1015.18 1015.20 1015.21 1015.23 1015.29 1015.38 1015.51 1015.63 1015.75 1015.86 1015.95 1016.03 1016.13 1016.27 1016.44 1016.65 1016.89 1017.13 1017.35 1017.54 1017.70 1017.84 1018.00 1018.20 1018.46
1014.34 1014.64 1014.95 1015.20 1015.34 1015.36 1015.25 1015.05 1014.83 1014.62 1014.49 1014.45 1014.52 1014.65 1014.82 1014.99 1015.11 1015.18 1015.20 1015.19 1015.18 1015.18 1015.20 1015.26 1015.34 1015.42 1015.49 1015.55 1015.59 1015.63 1015.70 1015.81 1015.96 1016.17 1016.41 1016.65 1016.89 1017.10 1017.29 1017.47 1017.66 1017.88 1018.15
1014.75 1015.03 1015.29 1015.47 1015.54 1015.50 1015.36 1015.16 1014.95 1014.77 1014.67 1014.66 1014.72 1014.85 1014.99 1015.11 1015.19 1015.22 1015.21 1015.17 1015.14 1015.12 1015.13 1015.16 1015.21 1015.25 1015.28 1015.28 1015.26 1015.25 1015.27 1015.33 1015.45 1015.62 1015.84 1016.08 1016.33 1016.56 1016.77 1016.98 1017.20 1017.45 1017.75
1015.08 1015.31 1015.50 1015.61 1015.62 1015.55 1015.40 1015.22 1015.05 1014.92 1014.86 1014.87 1014.94 1015.04 1015.14 1015.21 1015.24 1015.23 1015.19 1015.14 1015.10 1015.08 1015.09 1015.11 1015.14 1015.14 1015.12 1015.07 1014.99 1014.92 1014.86 1014.86 1014.91 1015.04 1015.21 1015.43 1015.66 1015.90 1016.14 1016.38 1016.63 1016.92 1017.24
1015.31 1015.47 1015.58 1015.62 1015.59 1015.50 1015.37 1015.24 1015.13 1015.07 1015.05 1015.08 1015.14 1015.20 1015.24 1015.26 1015.24 1015.20 1015.14 1015.10 1015.07 1015.07 1015.09 1015.11 1015.12 1015.10 1015.03 1014.92 1014.77 1014.62 1014.49 1014.40 1014.38 1014.42 1014.54 1014.71 1014.91 1015.15 1015.40 1015.67 1015.95 1016.27 1016.63
1015.45 1015.53 1015.56 1015.53 1015.48 1015.40 1015.32 1015.26 1015.22 1015.22 1015.24 1015.28 1015.31 1015.32 1015.30 1015.26 1015.20 1015.13 1015.08 1015.05 1015.06 1015.08 1015.12 1015.15 1015.15 1015.10 1014.98 1014.80 1014.59 1014.36 1014.14 1013.96 1013.85 1013.81 1013.85 1013.96 1014.13 1014.34 1014.59 1014.88 1015.20 1015.55 1015.94
1015.52 1015.51 1015.47 1015.40 1015.34 1015.29 1015.28 1015.30 1015.34 1015.40 1015.45 1015.48 1015.47 1015.42 1015.34 1015.23 1015.13 1015.05 1015.01 1015.01 1015.06 1015.12 1015.18 1015.22 1015.20 1015.11 1014.94 1014.71 1014.43 1014.12 1013.83 1013.57 1013.37 1013.24 1013.20 1013.24 1013.35 1013.52 1013.76 1014.06 1014.40 1014.79 1015.21
1015.52 1015.45 1015.35 1015.27 1015.22 1015.23 1015.30 1015.40 1015.52 1015.63 1015.70 1015.70 1015.63 1015.51 1015.36 1015.20 1015.06 1014.97 1014.95 1014.98 1015.06 1015.15 1015.23 1015.26 1015.23 1015.10 1014.89 1014.61 1014.27 1013.91 1013.56 1013.23 1012.96 1012.76 1012.64 1012.60 1012.65 1012.77 1012.98 1013.26 1013.62 1014.03 1014.48
1015.48 1015.36 1015.24 1015.16 1015.16 1015.24 1015.39 1015.58 1015.77 1015.91 1015.98 1015.94 1015.82 1015.62 1015.39 1015.17 1015.00 1014.90 1014.89 1014.95 1015.05 1015.16 1015.25 1015.27 1015.21 1015.05 1014.81 1014.49 1014.13 1013.74 1013.36 1013.00 1012.68 1012.42 1012.23 1012.11 1012.08 1012.15 1012.30 1012.56 1012.90 1013.31 1013.78
1015.40 1015.27 1015.15 1015.10 1015.16 1015.31 1015.54 1015.81 1016.06 1016.23 1016.28 1016.21 1016.01 1015.74 1015.44 1015.17 1014.96 1014.85 1014.84 1014.91 1015.02 1015.14 1015.21 1015.21 1015.13 1014.95 1014.69 1014.37 1014.01 1013.63 1013.26 1012.90 1012.56 1012.26 1012.01 1011.82 1011.71 1011.69 1011.78 1011.97 1012.27 1012.67 1013.13
1015.31 1015.18 1015.09 1015.09 1015.20 1015.43 1015.74 1016.06 1016.35 1016.53 1016.57 1016.45 1016.21 1015.87 1015.52 1015.19 1014.95 1014.82 1014.80 1014.86 1014.96 1015.06 1015.12 1015.10 1014.99 1014.81 1014.55 1014.26 1013.94 1013.61 1013.27 1012.94 1012.62 1012.30 1012.00 1011.74 1011.54 1011.42 1011.41 1011.52 1011.76 1012.10 1012.53
1015.20 1015.11 1015.05 1015.10 1015.26 1015.55 1015.91 1016.28 1016.59 1016.78 1016.80 1016.65 1016.36 1015.98 1015.59 1015.23 1014.96 1014.81 1014.77 1014.80 1014.88 1014.95 1014.97 1014.93 1014.81 1014.63 1014.41 1014.16 1013.91 1013.66 1013.40 1013.12 1012.83 1012.51 1012.18 1011.85 1011.56 1011.34 1011.22 1011.22 1011.35 1011.61 1011.97
1015.10 1015.04 1015.02 1015.10 1015.30 1015.61 1015.99 1016.38 1016.70 1016.89 1016.91 1016.75 1016.44 1016.05 1015.63 1015.26 1014.98 1014.80 1014.74 1014.74 1014.78 1014.81 1014.79 1014.72 1014.60 1014.44 1014.27 1014.09 1013.93 1013.77 1013.59 1013.40 1013.15 1012.84 1012.48 1012.10 1011.72 1011.39 1011.14 1011.02 1011.03 1011.17 1011.44
1015.01 1014.99 1014.99 1015.08 1015.28 1015.59 1015.97 1016.35 1016.66 1016.85 1016.87 1016.71 1016.42 1016.04 1015.63 1015.27 1014.98 1014.79 1014.70 1014.67 1014.66 1014.64 1014.59 1014.50 1014.38 1014.25 1014.13 1014.02 1013.95 1013.88 1013.81 1013.68 1013.49 1013.20 1012.83 1012.40 1011.94 1011.51 1011.15 1010.90 1010.78 1010.80 1010.94
1014.96 1014.95 1014.96 1015.03 1015.20 1015.47 1015.81 1016.16 1016.45 1016.63 1016.66 1016.53 1016.27 1015.93 1015.57 1015.23 1014.96 1014.76 1014.65 1014.58 1014.53 1014.47 1014.38 1014.28 1014.15 1014.05 1013.97 1013.94 1013.94 1013.96 1013.96 1013.90 1013.75 1013.49 1013.12 1012.66 1012.15 1011.65 1011.19 1010.83 1010.59 1010.48 1010.50
Thickness
5803 5803 5799 5796 5794 5792 5790 5789 5787 5786 5784 5783 5781 5780 5778 5775 5773 5771 5770 5768 5767 5766 5765 5763 5762 5761 5760 5759 5758 5757 5755 5754 5753 5752 5751 5750 5749 5748 5747 5746 5745 5744 5743
5807 5802 5799 5795 5792 5790 5788 5786 5784 5783 5781 5780 5778 5777 5775 5773 5771 5769 5768 5766 5765 5764 5763 5762 5760 5759 5758 5757 5756 5755 5754 5753 5751 5751 5750 5749 5747 5746 5745 5745 5744 5743 5741
5806 5801 5797 5794 5791 5789 5787 5784 5782 5780 5778 5777 5775 5774 5772 5770 5769 5767 5766 5764 5763 5762 5761 5760 5759 5757 5756 5755 5754 5753 5752 5751 5750 5749 5748 5747 5746 5745 5744 5743 5743 5741 5740
5804 5800 5796 5793 5790 5787 5785 5783 5781 5778 5776 5774 5773 5771 5769 5767 5766 5764 5763 5762 5760 5760 5758 5757 5756 5755 5754 5753 5752 5751 5750 5749 5749 5747 5746 5745 5745 5744 5743 5742 5741 5740 5739
5802 5797 5794 5791 5788 5785 5783 5781 5778 5776 5774 5772 5770 5768 5766 5764 5763 5761 5760 5759 5758 5757 5756 5755 5754 5753 5751 5750 5749 5748 5748 5747 5747 5745 5744 5743 5743 5742 5741 5740 5740 5739 5738
5799 5795 5791 5788 5785 5783 5781 5778 5776 5774 5771 5769 5767 5765 5764 5762 5760 5759 5758 5756 5755 5754 5753 5752 5751 5750 5748 5747 5746 5746 5745 5745 5744 5743 5742 5741 5741 5741 5740 5739 5738 5737 5736
5796 5792 5788 5785 5782 5780 5777 5776 5774 5772 5769 5767 5765 5763 5762 5760 5758 5757 5755 5754 5752 5751 5750 5749 5748 5747 5745 5744 5743 5742 5742 5742 5742 5741 5740 5739 5739 5739 5738 5737 5737 5736 5735
5793 5789 5785 5782 5779 5777 5774 5772 5770 5769 5767 5765 5763 5761 5760 5758 5756 5755 5753 5752 5750 5748 5747 5746 5745 5743 5742 5741 5740 5739 5738 5738 5739 5738 5738 5737 5737 5736 5736 5735 5735 5735 5734
5788 5784 5781 5778 5775 5773 5770 5769 5767 5765 5764 5762 5760 5759 5757 5756 5754 5753 5751 5749 5748 5746 5745 5744 5742 5741 5739 5738 5737 5736 5735 5735 5735 5735 5735 5735 5735 5734 5734 5734 5733 5733 5733
5782 5779 5776 5774 5771 5768 5766 5764 5762 5761 5760 5759 5757 5756 5754 5753 5752 5751 5749 5748 5746 5745 5743 5741 5739 5738 5737 5736 5735 5734 5732 5732 5732 5732 5732 5733 5733 5733 5733 5732 5732 5731 5731
5774 5772 5770 5768 5765 5763 5761 5759 5758 5757 5756 5754 5753 5752 5751 5750 5749 5747 5746 5745 5743 5742 5741 5739 5738 5736 5735 5733 5732 5731 5729 5729 5729 5729 5729 5730 5730 5731 5732 5731 5731 5730 5730
5765 5764 5762 5761 5759 5757 5756 5754 5752 5751 5750 5750 5748 5747 5746 5745 5744 5743 5742 5741 5740 5739 5738 5737 5736 5735 5733 5731 5729 5728 5727 5726 5726 5726 5727 5727 5728 5729 5730 5730 5730 5730 5729
5759 5759 5756 5756 5753 5751 5749 5747 5745 5743 5743 5743 5742 5741 5741 5740 5739 5738 5737 5736 5736 5735 5734 5733 5733 5732 5731 5729 5727 5726 5726 5725 5725 5724 5725 5726 5726 5727 5728 5729 5729 5729 5729
5752 5751 5751 5749 5747 5744 5742 5740 5738 5738 5737 5737 5736 5736 5735 5734 5733 5732 5731 5731 5730 5729 5729 5728 5728 5728 5727 5727 5726 5725 5723 5722 5723 5723 5723 5724 5725 5726 5727 5728 5728 5728 5728
5745 5744 5743 5743 5741 5738 5735 5733 5731 5731 5731 5731 5731 5731 5730 5729 5728 5727 5725 5724 5724 5723 5723 5723 5723 5722 5722 5722 5722 5722 5722 5721 5721 5721 5722 5722 5723 5724 5725 5727 5727 5728 5728
5738 5737 5737 5736 5734 5732 5729 5727 5727 5726 5725 5725 5725 5724 5723 5723 5722 5720 5719 5718 5717 5716 5716 5716 5716 5716 5717 5717 5717 5718 5719 5719 5719 5719 5720 5720 5721 5722 5723 5725 5726 5727 5727
5732 5732 5732 5730 5729 5727 5725 5722 5721 5720 5719 5719 5717 5717 5716 5715 5714 5713 5711 5710 5709 5709 5709 5709 5709 5710 5711 5711 5712 5713 5715 5716 5717 5718 5718 5718 5719 5720 5721 5723 5725 5726 5727
5728 5727 5726 5726 5723 5721 5719 5717 5715 5714 5713 5712 5710 5709 5708 5707 5706 5704 5703 5702 5701 5701 5701 5701 5702 5702 5703 5704 5706 5708 5710 5712 5714 5715 5716 5716 5717 5718 5719 5720 5722 5724 5726
5724 5722 5720 5719 5717 5715 5712 5710 5708 5706 5705 5704 5703 5701 5700 5699 5697 5696 5694 5694 5693 5693 5693 5693 5693 5694 5695 5697 5699 5703 5705 5708 5710 5712 5714 5715 5715 5715 5716 5717 5719 5722 5723
5720 5718 5716 5713 5711 5708 5706 5703 5700 5699 5697 5696 5694 5693 5692 5690 5689 5688 5687 5686 5685 5684 5684 5684 5684 5685 5687 5689 5692 5697 5700 5704 5706 5708 5711 5712 5713 5713 5714 5714 5716 5719 5721
5715 5713 5710 5707 5705 5702 5699 5696 5693 5690 5689 5688 5686 5685 5684 5682 5681 5680 5679 5678 5677 5675 5675 5675 5675 5676 5678 5681 5683 5687 5694 5699 5701 5704 5706 5708 5710 5711 5711 5712 5714 5715 5719
5713 5710 5707 5704 5701 5698 5695 5691 5688 5684 5681 5679 5678 5677 5675 5674 5673 5672 5671 5670 5669 5668 5667 5667 5667 5667 5668 5671 5672 5674 5679 5687 5694 5699 5700 5702 5705 5707 5708 5710 5711 5713 5715
5712 5709 5707 5703 5699 5695 5692 5687 5683 5678 5675 5672 5671 5669 5668 5667 5666 5665 5664 5663 5662 5661 5659 5659 5659 5659 5659 5661 5663 5663 5665 5670 5678 5688 5692 5696 5699 5701 5704 5706 5708 5710 5713
5713 5710 5706 5701 5697 5693 5688 5682 5676 5671 5666 5665 5662 5661 5660 5659 5658 5657 5657 5656 5655 5653 5652 5652 5652 5651 5651 5651 5653 5655 5657 5660 5663 5672 5681 5687 5691 5694 5698 5702 5705 5708 5711
5713 5708 5704 5699 5693 5688 5683 5677 5671 5666 5662 5659 5656 5654 5653 5652 5651 5650 5649 5648 5647 5646 5645 5644 5644 5643 5643 5643 5643 5646 5648 5652 5655 5658 5666 5673 5680 5687 5693 5697 5701 5705 5709
5711 5706 5700 5694 5689 5683 5677 5672 5666 5661 5657 5653 5651 5648 5647 5645 5644 5643 5642 5640 5639 5638 5637 5637 5636 5636 5635 5635 5636 5637 5639 5641 5645 5648 5653 5660 5667 5677 5686 5692 5696 5701 5706